Voltar ao catálogo

FENGYUN 1C DEB

AtivoSSO
NORAD 31303·DEBRIS·🇨🇳 China

Lançado May 10, 1999 de Taiyuan Satellite Launch Center

Loading…

Próximas Passagens (próximas 24 horas)

TLE

AtualizadoSource: Space-Track

Época: Sep 13, 2026, 06:29 UTC

1 31303U 99025BPM 26256.27037183  .00000086  00000-0  71429-4 0  9998
2 31303  98.6946 268.8767 0012279  96.4326 263.8244 14.11129048  1842

Acompanhe FENGYUN 1C DEB em tempo real com AllMySat

Download on the App Store